MUOS-3

Last updated on Sun Dec 21 2025 00:02:54 GMT+0000 (Coordinated Universal Time)

1 40374U 15002A 25354.43864120 -.00000108 00000+0 00000+0 0 9991 2 40374 4.1798 42.5219 0058000 182.3238 6.8803 1.00271097 39792
UTC large
Height (km)
Speed (km/s)
/
Latitude / Longitude
Inclination (degrees)
Orbital Period (minutes)
Azimuth
Elevation
Range (km)
Doppler Factor

Next 0 passes for location: London (51.5072 / 0.1276)

Sorry there are no passes over London.